[[{"header":{"parameterUnit":"m.s-1","parameterCategory":1,"la1":30.2991,"la2":30.254,"lo1":-89.0895,"lo2":-89.0444,"dy":0.0017,"dx":0.0017,"nx":28,"ny":28,"refTime":"2023-07-27T03:00:00:Z","depth":0,"parameterNumber":2,"parameterNumberName":"U-component_of_WINDS"},"data":[0,0,0,0,0,0,0,0,0,0,0,0,0,0,0,0,0,0,0,0,0,0,0,0,0,0,0,0,0,0,0,0,0,0,0,0,0,0,0,0,0,0,0,0,0,0,0,0,0,0,0,0,0,0,0,0,0,0,1.8323,1.8324,0,1.8427,1.8428,1.8429,1.8449,1.8448,1.8447,1.8447,1.8553,1.8556,1.856,0,0,0,0,0,0,0,0,0,0,0,0,0,1.8139,1.8142,1.8323,1.8324,1.8325,1.8427,1.8428,1.843,1.8449,1.8448,1.8447,1.8446,1.8551,1.8556,1.856,0,0,0,0,0,0,0,0,0,0,0,0,0,1.8228,1.8143,1.8322,1.8347,1.8351,1.8426,1.8428,1.843,1.8449,1.8448,1.8447,1.8446,1.855,1.8555,1.8561,1.8619,0,0,1.8577,1.8579,0,0,0,0,0,0,0,0,1.8223,1.8235,1.8342,1.8346,1.8349,1.8424,1.8402,1.8493,1.845,1.8412,1.8447,1.8445,1.8511,1.8519,1.8542,1.8624,1.8628,1.8578,1.8581,1.8583,1.8585,0,0,0,0,0,0,0,1.8217,1.8231,1.8364,1.8344,1.8348,1.8353,1.8364,1.8419,1.8467,1.8415,1.8417,1.8429,1.8512,1.8536,1.8544,1.863,1.8577,1.8582,1.8586,1.8588,1.8763,1.8764,0,0,0,0,0,0,1.8206,1.8225,1.836,1.8367,1.8282,1.8357,1.837,1.8401,1.8466,1.8475,1.843,1.8429,1.8528,1.8538,1.8548,1.8619,1.8583,1.8588,1.8591,1.8761,1.8763,1.8764,0,0,0,0,0,0,1.8202,1.8218,1.8356,1.8297,1.8315,1.8361,1.8397,1.8404,1.8428,1.8478,1.8486,1.8446,1.8527,1.854,1.8601,1.8623,1.8591,1.8595,1.876,1.8762,1.8764,1.8761,0,0,0,0,0,0,1.8197,1.8217,1.824,1.8297,1.8318,1.8408,1.8398,1.8407,1.8437,1.8437,1.8495,1.8503,1.8527,1.8592,1.8606,1.8629,1.86,1.8758,1.8761,1.8763,1.876,1.8763,1.8766,0,0,0,0,0,1.819,1.8235,1.8241,1.8257,1.8348,1.8409,1.8421,1.8448,1.8439,1.8462,1.8494,1.8501,1.8618,1.8598,1.8614,1.8639,1.8756,1.876,1.8763,1.8758,1.8762,1.8766,0,0,0,0,0,0,1.818,1.8243,1.825,1.8315,1.8356,1.8412,1.8442,1.8452,1.8497,1.8495,1.8527,1.854,1.8597,1.8625,1.8601,1.8698,1.8687,1.8693,1.8678,1.8682,1.8686,1.8677,1.8604,0,0,0,0,0,1.8185,1.823,1.8283,1.8335,1.8355,1.8395,1.8423,1.844,1.8484,1.8502,1.8538,1.858,1.8626,1.8656,1.8702,1.8764,1.8776,1.8789,1.8792,1.8795,1.8799,1.8833,1.8839,1.8775,1.8775,1.8775,0,0,1.8196,1.8236,1.8263,1.8334,1.8368,1.8413,1.841,1.8458,1.8491,1.8509,1.8568,1.8596,1.8645,1.8706,1.8734,1.873,1.882,1.8799,1.88,1.8804,1.8837,1.8842,1.8848,1.8777,1.8777,1.8776,0,0,1.8239,1.8275,1.8321,1.8355,1.8406,1.8432,1.8443,1.8498,1.8517,1.8576,1.859,1.863,1.8709,1.8743,1.8771,1.8825,1.8832,1.8839,1.8855,1.8887,1.8892,1.8897,1.8914,1.892,1.8843,1.8843,1.8844,0,1.8246,1.8315,1.8344,1.8391,1.8421,1.8439,1.8485,1.8517,1.858,1.86,1.8595,1.8693,1.8728,1.8796,1.8809,1.8831,1.8844,1.8832,1.8889,1.8894,1.8899,1.8916,1.8923,1.8844,1.8844,1.8844,1.8844,0,1.832,1.8368,1.8399,1.8459,1.8493,1.854,1.8574,1.8605,1.8619,1.8645,1.8704,1.8746,1.88,1.8817,1.8832,1.8887,1.8883,1.8883,1.8872,1.8905,1.8921,1.8928,1.8844,1.8844,1.8844,1.8844,0,0,1.8359,1.8434,1.8445,1.8472,1.853,1.8566,1.8613,1.8665,1.869,1.8733,1.8772,1.8838,1.8838,1.8869,1.8888,1.8916,1.8954,1.8913,1.8914,1.8917,1.9015,1.9014,1.9021,1.896,1.8961,1.8962,1.9011,0,1.8408,1.8492,1.8519,1.8589,1.8632,1.8649,1.8689,1.8729,1.8754,1.8794,1.8822,1.8868,1.8865,1.8884,1.8913,1.8943,1.8974,1.894,1.8995,1.8997,1.8981,1.903,1.9029,1.9073,1.9018,1.9019,1.902,0,1.8476,1.8519,1.8593,1.8644,1.8663,1.8699,1.8748,1.8786,1.883,1.8847,1.8881,1.8897,1.8945,1.8932,1.8998,1.8975,1.8999,1.9017,1.902,1.9025,1.9009,1.9035,1.9088,1.9093,1.903,1.903,1.9029,0,1.8495,1.8572,1.8626,1.8649,1.8709,1.8734,1.876,1.8803,1.8832,1.8875,1.8894,1.8942,1.8968,1.9004,1.9032,1.902,1.9095,1.9085,1.9109,1.9108,1.9123,1.9122,1.9179,1.9141,1.9141,1.9141,1.9141,0,1.8546,1.859,1.8635,1.8668,1.8717,1.8747,1.8795,1.8822,1.886,1.8898,1.8916,1.8951,1.8987,1.9026,1.9049,1.9099,1.9111,1.9125,1.913,1.9122,1.912,1.9138,1.9135,1.9142,1.9142,1.9142,1.9141,0,1.8575,1.8607,1.8666,1.8719,1.8733,1.8767,1.8811,1.8843,1.8869,1.8917,1.893,1.897,1.9018,1.9049,1.911,1.9125,1.9179,1.9184,1.9164,1.9166,1.9188,1.9185,1.9257,1.9267,1.9224,1.9224,1.9224,0,1.8604,1.8638,1.8694,1.8721,1.8747,1.879,1.8819,1.885,1.8879,1.8931,1.8957,1.9005,1.9045,1.912,1.9154,1.92,1.9206,1.9228,1.9213,1.9204,1.9204,1.9201,1.9204,1.923,1.923,1.9231,1.9231,0,1.8653,1.8666,1.8708,1.8755,1.879,1.8829,1.8867,1.8888,1.8925,1.8957,1.9005,1.9036,1.9098,1.9145,1.9194,1.922,1.9231,1.9235,1.9243,1.9235,1.9221,1.9227,1.9169,1.9233,1.9233,1.9233,1.9233,1.9233,1.8682,1.8712,1.8756,1.8801,1.8833,1.8869,1.8901,1.8931,1.8971,1.9023,1.9039,1.9089,1.9131,1.9198,1.9225,1.9264,1.9261,1.9273,1.9276,1.9278,1.9277,1.9216,1.9273,1.9273,1.9273,1.9273,1.9273,0,1.873,1.8758,1.88,1.8853,1.8888,1.8896,1.8939,1.8967,1.9011,1.9049,1.9088,1.9143,1.9189,1.9226,1.9273,1.9297,1.9303,1.9308,1.9306,1.9311,1.9277,1.9265,1.9302,1.9302,1.9302,1.9302,1.9302,1.9302,1.8759,1.881,1.8829,1.8896,1.8924,1.8973,1.8997,1.9029,1.9059,1.9119,1.9157,1.9182,1.9219,1.9269,1.9311,1.9321,1.9336,1.934,1.9351,1.9318,1.9314,1.9311,1.93,1.9344,1.9344,1.9382,1.9382,1.9382]},{"header":{"parameterUnit":"m.s-1","parameterCategory":1,"la1":30.2991,"la2":30.254,"lo1":-89.0895,"lo2":-89.0444,"dy":0.0017,"dx":0.0017,"nx":28,"ny":28,"refTime":"2023-07-27T03:00:00:Z","depth":0,"parameterNumber":3,"parameterNumberName":"V-component_of_WINDS"},"data":[0,0,0,0,0,0,0,0,0,0,0,0,0,0,0,0,0,0,0,0,0,0,0,0,0,0,0,0,0,0,0,0,0,0,0,0,0,0,0,0,0,0,0,0,0,0,0,0,0,0,0,0,0,0,0,0,0,0,1.512,1.512,0,1.5048,1.5047,1.5046,1.4962,1.4961,1.496,1.4958,1.4884,1.4883,1.4882,0,0,0,0,0,0,0,0,0,0,0,0,0,1.5186,1.5185,1.512,1.5119,1.5119,1.5048,1.5047,1.5046,1.4962,1.4961,1.4959,1.4958,1.4884,1.4883,1.4882,0,0,0,0,0,0,0,0,0,0,0,0,0,1.514,1.5185,1.5121,1.5068,1.5063,1.5048,1.5047,1.5045,1.4963,1.4961,1.4959,1.4957,1.4884,1.4883,1.4882,1.4912,0,0,1.4878,1.4878,0,0,0,0,0,0,0,0,1.5142,1.5137,1.5077,1.5072,1.5066,1.5012,1.5042,1.5001,1.4963,1.5001,1.4958,1.4956,1.4928,1.4923,1.4914,1.4909,1.4906,1.4878,1.4877,1.4877,1.4877,0,0,0,0,0,0,0,1.5146,1.514,1.5092,1.5076,1.5069,1.5048,1.504,1.5034,1.4976,1.4997,1.4991,1.4984,1.4925,1.4915,1.4911,1.4904,1.4878,1.4877,1.4876,1.4876,1.4918,1.492,0,0,0,0,0,0,1.5157,1.5143,1.5094,1.5089,1.51,1.5049,1.5039,1.5031,1.4976,1.4965,1.4985,1.498,1.4918,1.4913,1.4908,1.4938,1.4877,1.4876,1.4875,1.4916,1.4919,1.4921,0,0,0,0,0,0,1.5158,1.5153,1.5097,1.5114,1.5106,1.5049,1.5041,1.5031,1.5021,1.4967,1.4956,1.4986,1.4916,1.491,1.4911,1.4935,1.4875,1.4874,1.4914,1.4917,1.492,1.5,0,0,0,0,0,0,1.5161,1.5154,1.5166,1.5115,1.5105,1.5102,1.5043,1.5031,1.5019,1.5012,1.4965,1.4955,1.4914,1.4914,1.491,1.4932,1.4873,1.4912,1.4915,1.4919,1.4995,1.5006,1.5014,0,0,0,0,0,1.5163,1.5192,1.5167,1.5161,1.5118,1.5104,1.5098,1.505,1.5021,1.5032,1.4997,1.4956,1.4933,1.4914,1.491,1.4932,1.491,1.4914,1.4918,1.4991,1.5004,1.5014,0,0,0,0,0,0,1.5247,1.5184,1.5156,1.5169,1.5142,1.5089,1.5101,1.5065,1.5046,1.504,1.4981,1.4972,1.498,1.4956,1.4936,1.4957,1.4915,1.4919,1.4972,1.4984,1.4993,1.4998,1.4872,0,0,0,0,0,1.5267,1.526,1.5206,1.5223,1.5211,1.5159,1.515,1.5116,1.5086,1.5074,1.5039,1.5011,1.4997,1.4989,1.4973,1.4991,1.4979,1.5004,1.5013,1.5021,1.5025,1.5031,1.5041,1.4934,1.4934,1.4934,0,0,1.5308,1.5273,1.5273,1.5239,1.5214,1.5208,1.515,1.5146,1.5141,1.5073,1.5072,1.5045,1.501,1.502,1.5022,1.5,1.5051,1.5027,1.5034,1.5033,1.5036,1.5046,1.5055,1.4937,1.4937,1.4936,0,0,1.538,1.5353,1.5363,1.5339,1.5302,1.5267,1.527,1.5222,1.5201,1.5199,1.5148,1.514,1.5118,1.5094,1.5079,1.514,1.5102,1.5136,1.5186,1.5192,1.5201,1.5208,1.5228,1.5236,1.514,1.514,1.5141,0,1.5435,1.5425,1.5373,1.5372,1.5358,1.5296,1.5306,1.5285,1.5245,1.5236,1.5212,1.5181,1.5153,1.5155,1.517,1.516,1.516,1.5142,1.5204,1.521,1.5216,1.5235,1.5243,1.5145,1.5144,1.5144,1.5143,0,1.5494,1.5487,1.55,1.5462,1.5449,1.5454,1.5402,1.5395,1.5362,1.5329,1.5326,1.529,1.5265,1.5263,1.5231,1.526,1.5247,1.5215,1.5172,1.5231,1.5248,1.5255,1.5151,1.5149,1.5148,1.5147,0,0,1.5617,1.555,1.5555,1.5537,1.549,1.5484,1.5484,1.546,1.5454,1.5428,1.5426,1.5408,1.5376,1.5359,1.5323,1.5329,1.5377,1.5295,1.5293,1.531,1.5406,1.5431,1.544,1.5352,1.5353,1.5354,1.5408,0,1.568,1.5678,1.5631,1.5642,1.5634,1.5574,1.5575,1.5546,1.5515,1.5503,1.5468,1.5456,1.5415,1.5405,1.5408,1.5371,1.5396,1.5367,1.5349,1.5349,1.5359,1.5449,1.5475,1.5529,1.5415,1.5416,1.5416,0,1.5753,1.5731,1.5741,1.5693,1.5687,1.5689,1.5661,1.5651,1.5616,1.5593,1.5574,1.5532,1.5528,1.5488,1.5481,1.5462,1.5452,1.5433,1.5433,1.543,1.5386,1.5447,1.5545,1.5553,1.5426,1.5426,1.5425,0,1.5841,1.5813,1.5815,1.5801,1.5745,1.5747,1.5724,1.5687,1.5675,1.565,1.5641,1.5617,1.5604,1.5585,1.5538,1.5513,1.5536,1.5492,1.5515,1.5517,1.5523,1.5523,1.562,1.5518,1.5517,1.5517,1.5517,0,1.5915,1.5924,1.5853,1.5854,1.5861,1.5807,1.5815,1.5785,1.5753,1.5747,1.5694,1.5689,1.5627,1.5614,1.5577,1.5576,1.5571,1.5551,1.5541,1.5556,1.5558,1.5548,1.5543,1.5519,1.5519,1.5519,1.5518,0,1.6014,1.5968,1.5966,1.5912,1.5899,1.5906,1.586,1.5858,1.5824,1.5816,1.5811,1.5756,1.5739,1.569,1.566,1.5634,1.5644,1.5625,1.5655,1.5649,1.5675,1.5673,1.5768,1.5777,1.567,1.5671,1.5672,0,1.6065,1.607,1.6016,1.6008,1.5987,1.5975,1.5962,1.5907,1.5896,1.5855,1.5858,1.5836,1.5816,1.5791,1.5747,1.5724,1.5704,1.5739,1.57,1.5714,1.5703,1.5703,1.5702,1.5747,1.5749,1.575,1.5751,0,1.6159,1.6135,1.6118,1.6093,1.6078,1.6056,1.603,1.6026,1.5965,1.5954,1.5936,1.592,1.5888,1.5867,1.5836,1.5811,1.577,1.5763,1.5767,1.5782,1.5799,1.5789,1.5678,1.5762,1.5761,1.576,1.5759,1.5759,1.6234,1.6235,1.6197,1.618,1.6155,1.6131,1.6127,1.6091,1.6074,1.6045,1.6013,1.5998,1.5961,1.5915,1.5893,1.5879,1.5858,1.5864,1.5865,1.5867,1.5873,1.5802,1.5873,1.5873,1.5872,1.5872,1.5872,0,1.6325,1.6297,1.6281,1.6247,1.6233,1.6196,1.6165,1.6155,1.6142,1.6112,1.6092,1.607,1.6048,1.6003,1.5977,1.5974,1.5955,1.5969,1.5968,1.5963,1.5894,1.5893,1.5985,1.5985,1.5985,1.5985,1.5985,1.5985,1.637,1.6369,1.6341,1.6326,1.6298,1.6283,1.6268,1.6246,1.622,1.6198,1.618,1.615,1.6113,1.6083,1.6061,1.6048,1.6041,1.6061,1.6042,1.5979,1.5968,1.5958,1.5956,1.606,1.606,1.6111,1.6112,1.6112]}]]